This is the latest recevied weather packets stored in our database for station/object K9ZOG. If no packets are shown the sender has not sent any weather packets the latest 10 day(s).
| Time | Temp. | Humidity | Pressure | Rain* | Wind** | Luminosity | Snow |
|---|---|---|---|---|---|---|---|
| 1777222453 | 14.44° C | 70% | 1019.8 hPa | 0 mm | - | 123 W/m² | - |
| 1777222155 | 13.89° C | 73% | 1019.9 hPa | 0 mm | - | 126 W/m² | - |
| 1777221853 | 13.33° C | 74% | 1020 hPa | 0 mm | - | 118 W/m² | - |
| 1777221552 | 13.33° C | 74% | 1019.9 hPa | 0 mm | - | 177 W/m² | - |
| 1777221254 | 12.78° C | 74% | 1019.9 hPa | 0 mm | - | 177 W/m² | - |
| 1777220953 | 12.78° C | 74% | 1019.9 hPa | 0 mm | - | 406 W/m² | - |
| 1777220652 | 12.22° C | 75% | 1020 hPa | 0 mm | - | 304 W/m² | - |
| 1777220354 | 11.67° C | 78% | 1020.1 hPa | 0 mm | - | 458 W/m² | - |
| 1777220054 | 11.67° C | 77% | 1020.1 hPa | 0 mm | - | 455 W/m² | - |
| 1777219754 | 11.67° C | 78% | 1020.1 hPa | 0 mm | - | 420 W/m² | - |
| 1777219453 | 11.11° C | 78% | 1020.3 hPa | 0 mm | - | 384 W/m² | - |
| 1777219153 | 11.11° C | 78% | 1020.4 hPa | 0 mm | - | 320 W/m² | - |
| 1777218852 | 11.11° C | 79% | 1020.6 hPa | 0 mm | - | 283 W/m² | - |
| 1777218553 | 11.11° C | 80% | 1020.6 hPa | 0 mm | - | 261 W/m² | - |
| 1777218253 | 11.11° C | 80% | 1020.6 hPa | 0 mm | - | 281 W/m² | - |
| 1777217953 | 11.11° C | 80% | 1020.6 hPa | 0 mm | - | 248 W/m² | - |
| 1777217653 | 10.56° C | 81% | 1020.6 hPa | 0 mm | - | 262 W/m² | - |
| 1777217353 | 10.56° C | 80% | 1020.7 hPa | 0 mm | - | 239 W/m² | - |
| 1777217054 | 10.56° C | 81% | 1020.7 hPa | 0 mm | - | 230 W/m² | - |
| 1777216753 | 10.56° C | 81% | 1020.7 hPa | 0 mm | - | 221 W/m² | - |
| 1777216453 | 10.56° C | 81% | 1020.8 hPa | 0 mm | - | 223 W/m² | - |
| 1777216152 | 10.56° C | 81% | 1020.7 hPa | 0 mm | - | 211 W/m² | - |
| 1777215852 | 10.56° C | 82% | 1020.8 hPa | 0 mm | - | 199 W/m² | - |
| 1777215552 | 10.56° C | 83% | 1020.8 hPa | 0 mm | - | 194 W/m² | - |
| 1777215253 | 10° C | 83% | 1020.8 hPa | 0 mm | - | 198 W/m² | - |
* Rain latest hour (hover to see other rain measurements)
** Current wind speed in m/s (hover to see current wind gust speed)